Find Starlink 32557

NORAD ID: 62127 Int'l Des: 2024-222 Owner: SPXS Country: US Constellation: starlink operational
LEOCIRCULAR

Live-Position

3D-Globus wird geladen...

Über Starlink 32557

Beschreibung wird geladen...

Nächste Überflüge

Passes for default location (London). Set your location on the main map for personalized predictions.

Höhenverlauf

Loading altitude history...

Zweizeiliger Elementsatz

1 62127U 24222P 26126.51616169 .00013259 00000-0 49083-3 0 9999
2 62127 42.9997 159.0035 0001381 269.1294 90.9400 15.27556753 81769
Epoch: 6. Mai 2026 • Age: 12 hours

Aktueller Status

Höhe 488.1 km
Geschwindigkeit 7.62 km/s
Subsatellitenpunkt -23.38°S, 134.12°E
Startdatum 27. Nov. 2024
Alter 1.4 years
Typ internet

Technische Details

Klassifizierung Payload
Masse 730.00 kg
Trockenmasse 700.00 kg
Gesamtmasse 730.00 kg
Länge 0.30 m
Durchmesser 4.10 m
Spannweite 29.00 m
Form Box + pan
Hersteller SPXS
Bus-Typ Starlink V2M
Phasenstatus In Orbit
Besitzer/Staat SPXS/US

Most Searched